Location: Recife
(8.0585°S, 34.8848°W)
Time: 20:09:34
(UTC-03:00)

A-11 Canister half - Pass Details

Date: 15 April 2026
Orbit: 1515 x 1684 km, 47.2° (Epoch: 16 May)

Event Time Altitude Azimuth Distance (km) Brightness Sun altitude
Rises 16:50:10 0° 269° (W) 4,934 13.8 5.8°
Reaches altitude 10° 16:55:41 10° 246° (WSW) 3,945 12.2 4.4°
Maximum altitude 17:00:23 14° 217° (SW) 3,621 11.4 3.3°
Drops below altitude 10° 17:05:05 10° 189° (S) 3,918 11.2 2.1°
Sets 17:10:37 0° 165° (SSE) 4,877 11.4 0.8°
